This is the latest recevied weather packets stored in our database for station/object DL7HMX-13. If no packets are shown the sender has not sent any weather packets the latest 10 day(s).
| Time | Temp. | Humidity | Pressure | Rain* | Wind** | Luminosity | Snow |
|---|---|---|---|---|---|---|---|
| 1777870821 | 10.56° C | 85% | 1014.6 hPa | 0 mm | - | 63 W/m² | - |
| 1777870223 | 10.56° C | 85% | 1014.6 hPa | 0 mm | - | 48 W/m² | - |
| 1777869626 | 10.56° C | 86% | 1014.5 hPa | 0 mm | - | 39 W/m² | - |
| 1777869029 | 10° C | 88% | 1014.3 hPa | 0 mm | - | 33 W/m² | - |
| 1777868432 | 9.44° C | 89% | 1014.4 hPa | 0 mm | - | 30 W/m² | - |
| 1777867816 | 8.89° C | 90% | 1014.4 hPa | 0 mm | - | 20 W/m² | - |
| 1777867220 | 8.89° C | 89% | 1014.3 hPa | 0 mm | - | 9 W/m² | - |
| 1777866623 | 8.89° C | 88% | 1014.3 hPa | 0 mm | - | 4 W/m² | - |
| 1777866025 | 8.89° C | 88% | 1014.3 hPa | 0 mm | - | 2 W/m² | - |
| 1777865429 | 9.44° C | 88% | 1014.1 hPa | 0 mm | - | 0 W/m² | - |
| 1777864832 | 9.44° C | 86% | 1014.1 hPa | 0 mm | - | 0 W/m² | - |
| 1777864218 | 9.44° C | 86% | 1014.2 hPa | 0 mm | - | 0 W/m² | - |
| 1777863620 | 9.44° C | 86% | 1014.2 hPa | 0 mm | - | 0 W/m² | - |
| 1777863024 | 10° C | 83% | 1014.1 hPa | 0 mm | - | 0 W/m² | - |
| 1777862427 | 10° C | 82% | 1014.1 hPa | 0 mm | - | 0 W/m² | - |
| 1777861829 | 10° C | 84% | 1014 hPa | 0 mm | - | 0 W/m² | - |
| 1777861216 | 10° C | 82% | 1013.9 hPa | 0 mm | - | 0 W/m² | - |
| 1777860619 | 10° C | 83% | 1013.9 hPa | 0 mm | - | 0 W/m² | - |
| 1777860021 | 10.56° C | 83% | 1013.8 hPa | 0 mm | - | 0 W/m² | - |
| 1777859424 | 10.56° C | 82% | 1013.5 hPa | 0 mm | - | 0 W/m² | - |
| 1777858828 | 10.56° C | 81% | 1013.4 hPa | 0 mm | - | 0 W/m² | - |
| 1777858231 | 10.56° C | 81% | 1013.3 hPa | 0 mm | - | 0 W/m² | - |
| 1777857617 | 10.56° C | 80% | 1013.2 hPa | 0 mm | - | 0 W/m² | - |
| 1777857020 | 10.56° C | 79% | 1012.9 hPa | 0 mm | - | 0 W/m² | - |
| 1777856423 | 11.11° C | 78% | 1012.9 hPa | 0 mm | - | 0 W/m² | - |
* Rain latest hour (hover to see other rain measurements)
** Current wind speed in m/s (hover to see current wind gust speed)